TimeCDT,TemperatureF,Dew PointF,Humidity,Sea Level PressureIn,VisibilityMPH,Wind Direction,Wind SpeedMPH,Gust SpeedMPH,PrecipitationIn,Events,Conditions,WindDirDegrees,DateUTC
12:15 AM,62.6,61.7,97,29.77,4.0,SW,10.4,-,N/A,Rain,Rain,220,2013-10-31 05:15:00
12:35 AM,62.1,61.0,96,29.76,4.0,WSW,5.8,9.2,0.02,Rain,Rain,240,2013-10-31 05:35:00
12:55 AM,62.6,61.3,96,29.75,4.0,SW,6.9,-,0.04,Rain,Rain,230,2013-10-31 05:55:00
1:15 AM,62.6,61.3,96,29.74,3.0,SSW,5.8,-,0.01,Rain,Light Rain,210,2013-10-31 06:15:00
1:35 AM,62.8,61.9,97,29.73,2.0,SSW,5.8,-,0.11,Rain,Heavy Rain,200,2013-10-31 06:35:00
1:55 AM,63.1,62.2,97,29.72,4.0,SW,9.2,-,0.19,Rain,Rain,220,2013-10-31 06:55:00
2:15 AM,63.5,62.6,97,29.71,2.0,SW,6.9,-,0.19,Rain,Heavy Rain,230,2013-10-31 07:15:00
2:35 AM,63.5,62.6,97,29.70,2.0,SW,9.2,-,0.40,Rain,Heavy Rain,220,2013-10-31 07:35:00
2:55 AM,63.1,62.2,97,29.69,4.0,SSW,11.5,-,0.49,Rain,Rain,200,2013-10-31 07:55:00
3:15 AM,63.1,62.1,96,29.68,4.0,SSW,12.7,-,0.04,Rain,Rain,210,2013-10-31 08:15:00
3:35 AM,62.8,61.5,96,29.66,5.0,South,12.7,-,0.09,Rain,Rain,190,2013-10-31 08:35:00
3:55 AM,62.6,61.2,95,29.65,7.0,South,10.4,-,0.11,Rain,Light Rain,190,2013-10-31 08:55:00
4:15 AM,62.6,61.2,95,29.63,7.0,South,10.4,-,N/A,,Overcast,180,2013-10-31 09:15:00
4:35 AM,62.6,61.2,95,29.62,10.0,SSW,10.4,16.1,0.01,,Overcast,200,2013-10-31 09:35:00
4:55 AM,62.6,61.0,94,29.63,10.0,SSW,11.5,-,0.01,,Overcast,210,2013-10-31 09:55:00
5:15 AM,62.6,60.8,94,29.63,10.0,SW,12.7,17.3,N/A,,Overcast,220,2013-10-31 10:15:00
5:35 AM,62.6,60.8,94,29.63,10.0,SW,13.8,-,N/A,,Light Drizzle,220,2013-10-31 10:35:00
5:55 AM,62.6,60.8,94,29.63,10.0,SSW,12.7,-,N/A,,Overcast,210,2013-10-31 10:55:00
6:15 AM,62.6,60.8,94,29.61,10.0,SW,11.5,-,N/A,,Overcast,220,2013-10-31 11:15:00
6:35 AM,62.6,60.8,94,29.61,10.0,SSW,10.4,-,N/A,,Overcast,200,2013-10-31 11:35:00
6:55 AM,62.2,60.6,94,29.59,10.0,SSW,11.5,-,N/A,,Overcast,210,2013-10-31 11:55:00
7:15 AM,62.1,60.3,94,29.60,10.0,SSW,10.4,-,N/A,,Overcast,210,2013-10-31 12:15:00
7:35 AM,62.2,60.4,94,29.59,10.0,SSW,11.5,-,N/A,,Overcast,200,2013-10-31 12:35:00
7:55 AM,61.9,60.1,94,29.59,10.0,SSW,12.7,-,N/A,,Light Drizzle,210,2013-10-31 12:55:00
8:15 AM,61.7,59.9,94,29.59,10.0,SSW,10.4,-,N/A,,Drizzle,210,2013-10-31 13:15:00
8:35 AM,61.7,59.9,94,29.59,7.0,SSW,10.4,-,0.01,Rain,Light Rain,210,2013-10-31 13:35:00
8:55 AM,61.7,59.9,94,29.58,10.0,SSW,10.4,-,0.03,Rain,Light Rain,200,2013-10-31 13:55:00
9:15 AM,61.7,60.1,94,29.56,10.0,South,8.1,-,N/A,,Light Drizzle,190,2013-10-31 14:15:00
9:35 AM,61.7,60.3,95,29.55,10.0,SSW,6.9,-,N/A,,Overcast,210,2013-10-31 14:35:00
9:55 AM,61.7,60.1,94,29.55,7.0,SW,8.1,-,N/A,,Light Drizzle,230,2013-10-31 14:55:00
10:15 AM,61.7,60.1,94,29.53,10.0,SSW,11.5,16.1,N/A,,Light Drizzle,200,2013-10-31 15:15:00
10:35 AM,62.6,60.8,94,29.51,10.0,SSW,9.2,-,N/A,,Light Drizzle,200,2013-10-31 15:35:00
10:55 AM,62.1,60.3,94,29.50,10.0,South,10.4,-,N/A,,Overcast,190,2013-10-31 15:55:00
11:15 AM,62.6,60.8,94,29.49,10.0,South,9.2,-,N/A,,Light Drizzle,180,2013-10-31 16:15:00
11:35 AM,62.6,60.8,94,29.48,7.0,South,9.2,-,0.01,Rain,Rain,190,2013-10-31 16:35:00
11:55 AM,62.2,60.8,95,29.47,5.0,SSW,5.8,-,0.02,Rain,Light Rain,210,2013-10-31 16:55:00
12:15 PM,61.7,60.4,96,29.45,4.0,SSW,3.5,-,0.02,Rain,Light Rain,200,2013-10-31 17:15:00
12:35 PM,62.1,60.8,96,29.43,5.0,South,4.6,-,0.04,Rain,Light Rain,190,2013-10-31 17:35:00
12:55 PM,61.7,60.4,96,29.40,4.0,SSW,6.9,-,0.06,Rain,Light Rain,210,2013-10-31 17:55:00
1:15 PM,60.3,58.5,94,29.38,3.0,SSW,8.1,-,0.03,Rain,Light Rain,210,2013-10-31 18:15:00
1:35 PM,59.9,58.1,94,29.36,7.0,SSW,6.9,-,0.03,Rain,Rain,210,2013-10-31 18:35:00
1:55 PM,59.9,58.1,94,29.35,4.0,WSW,6.9,-,0.06,Rain,Light Rain,250,2013-10-31 18:55:00
2:15 PM,59.9,58.5,95,29.32,4.0,West,8.1,-,0.01,Rain,Rain,270,2013-10-31 19:15:00
2:35 PM,59.9,58.5,95,29.33,2.5,West,10.4,-,0.10,Rain,Heavy Rain,270,2013-10-31 19:35:00
2:55 PM,57.6,55.9,94,29.32,2.5,WNW,20.7,29.9,0.23,Rain,Light Rain,300,2013-10-31 19:55:00
3:15 PM,57.4,55.6,94,29.32,7.0,WNW,16.1,21.9,N/A,,Drizzle,300,2013-10-31 20:15:00
3:35 PM,56.7,54.9,94,29.30,3.0,NW,17.3,20.7,0.03,Rain,Light Rain,320,2013-10-31 20:35:00
3:55 PM,56.3,54.5,94,29.28,10.0,NW,12.7,-,0.03,,Mostly Cloudy,320,2013-10-31 20:55:00
4:15 PM,56.3,54.5,94,29.32,10.0,WNW,15.0,20.7,N/A,,Overcast,290,2013-10-31 21:15:00
4:35 PM,55.4,52.9,91,29.33,10.0,WNW,16.1,25.3,N/A,,Overcast,290,2013-10-31 21:35:00
4:55 PM,54.7,52.3,92,29.33,10.0,WNW,18.4,21.9,N/A,,Overcast,290,2013-10-31 21:55:00
5:15 PM,53.8,51.1,91,29.32,10.0,WNW,20.7,26.5,N/A,,Mostly Cloudy,290,2013-10-31 22:15:00
5:35 PM,53.2,50.4,90,29.33,10.0,WNW,12.7,20.7,N/A,,Mostly Cloudy,290,2013-10-31 22:35:00
5:55 PM,52.9,50.2,91,29.35,10.0,WNW,12.7,19.6,N/A,,Overcast,290,2013-10-31 22:55:00
6:15 PM,52.2,49.6,91,29.37,10.0,West,19.6,26.5,N/A,Rain,Light Rain,270,2013-10-31 23:15:00
6:35 PM,50.9,48.2,90,29.38,10.0,WNW,15.0,21.9,N/A,Rain,Rain,290,2013-10-31 23:35:00
6:55 PM,50.2,47.5,90,29.38,10.0,WNW,18.4,25.3,N/A,,Light Drizzle,290,2013-10-31 23:55:00
7:15 PM,49.3,46.9,92,29.39,7.0,West,15.0,23.0,N/A,Rain,Light Rain,270,2013-11-01 00:15:00
7:35 PM,49.1,46.6,91,29.39,10.0,West,12.7,18.4,0.01,,Light Drizzle,280,2013-11-01 00:35:00
7:55 PM,48.6,46.0,91,29.36,10.0,WNW,13.8,-,0.01,,Mostly Cloudy,290,2013-11-01 00:55:00
8:15 PM,48.2,45.5,90,29.38,10.0,West,12.7,20.7,N/A,,Scattered Clouds,280,2013-11-01 01:15:00
8:35 PM,47.8,45.0,90,29.38,10.0,West,15.0,20.7,N/A,,Scattered Clouds,280,2013-11-01 01:35:00
8:55 PM,47.5,44.6,90,29.39,10.0,West,13.8,25.3,N/A,,Overcast,280,2013-11-01 01:55:00
9:15 PM,47.3,44.1,88,29.39,10.0,WNW,19.6,24.2,N/A,,Overcast,290,2013-11-01 02:15:00
9:35 PM,46.8,43.7,89,29.40,10.0,West,15.0,-,N/A,,Overcast,270,2013-11-01 02:35:00
9:55 PM,46.4,43.0,88,29.42,10.0,West,20.7,26.5,N/A,,Overcast,280,2013-11-01 02:55:00
10:15 PM,46.4,42.8,87,29.44,10.0,West,17.3,27.6,N/A,,Overcast,280,2013-11-01 03:15:00
10:35 PM,46.4,42.8,87,29.46,10.0,West,16.1,26.5,N/A,,Overcast,260,2013-11-01 03:35:00
10:55 PM,46.4,42.6,87,29.47,10.0,West,18.4,-,N/A,,Overcast,270,2013-11-01 03:55:00
11:15 PM,45.9,42.3,87,29.46,10.0,West,17.3,27.6,N/A,,Overcast,270,2013-11-01 04:15:00
11:35 PM,45.7,41.7,86,29.47,10.0,West,18.4,28.8,N/A,,Overcast,270,2013-11-01 04:35:00
11:55 PM,45.5,41.2,85,29.48,10.0,West,23.0,31.1,N/A,,Overcast,270,2013-11-01 04:55:00